STARLINK-5297, 54158

Orbit data source: Space-Track

STARLINK-5297, 54158 is a payload satellite owned by SpaceX/Seattle (US) in LEO that was launched on Fri, 28 Oct 2022 UTC via an FALCON 9 launch vehicle from the Air Force Western Test Range (AFWTR). Payload-class satellites include a variety of spacecraft equipped with specific instruments for various scientific and technological missions. These include communications satellites like Starlink; space stations such as the ISS; scientific satellites like the Hubble; Earth observation satellites from companies like Planet Labs, Umbra, and HawkEye 360; GPS; miniature CubeSats for education and research; and military/defense satellites.

Loading next visibility...
Identifier
54158, 2022-141B
Orbit
LEO
Country
Flag of USUS
Related business
Manufacturer
SpaceX/Seattle
Mission
Operational Commercial Communications
Bus & Motor
STARLINK, Unknown motor
Mass
305 kg wet, ~290 kg dry
Launch date (UTC)
2022-10-28 (4 years ago)
Launch vehicle
FALCON 9
Launch site
Air Force Western Test Range (AFWTR)
Object type
Payload
Rocket body
Debris
Shape & HBR
Box + 1 Pan, 10.1 m
Radar Cross Section
13.562 m², Large (>1 m²)

Expand to show TLE details & history
Last TLE update: 3 days ago

TLE from 3 days ago
0 STARLINK-5297
1 54158U 22141B   26170.68807372  .00000889  00000-0  73944-4 0  9996
2 54158  53.1610 276.2532 0001092 101.7396 258.3718 15.08841708201118
Epoch: 2026-06-19T16:30Z
TLE epoch observation values (Epoch: 2026-06-19T16:30:49.569Z)
Latitude
-0.00002°
Longitude
120.63319°
Altitude
540.782 km
Speed
7.593 km/s
True Right ascension
18h 25m 00s
True Declination
0° 00' 00"
Sunlit
Object was in full shadow at epoch
Visualization orbit readout
Latitude
Unknown
Longitude
Unknown
Altitude
Unknown
Speed
Unknown
Apparent Right ascension
Unknown
Apparent Declination
Unknown
Sunlit
N/A
Visualization observer readout
Local Sidereal Time
00:30:45
Azimuth
Unknown
Elevation
Unknown
Doppler factor
Unknown
Orbital elements
Apogee altitude
540.748 km
Perigee altitude
539.237 km
Semi-major axis
6,918.129 km
Eccentricity
0.00011
Inclination
53.161°
RAAN
276.2532°
Arg. of periapsis
101.7396°
True anomaly
258.35954°
Mean anomaly
258.3718°
Eccentric anomaly
258.36567°
Mean motion
3.7719 °/min
Orbital period
95.44 mins
BSTAR
0.000073944
Loading maneuver chart data...
Computing Atmospheric mass density...
Loading historical data...
Loading historical data...
Loading historical data...
Loading historical data...
Loading historical data...
Loading historical data...
Loading historical data...

Documentation

Showing up to 5 results
|